TimeEST,TemperatureF,Dew PointF,Humidity,Sea Level PressureIn,VisibilityMPH,Wind Direction,Wind SpeedMPH,Gust SpeedMPH,PrecipitationIn,Events,Conditions,WindDirDegrees,DateUTC
12:10 AM,51.8,44.6,76,30.36,10.0,NNE,11.5,-,N/A,,Overcast,20,2012-11-18 05:10:00
12:56 AM,52.0,45.0,77,30.33,10.0,North,15.0,24.2,N/A,,Overcast,360,2012-11-18 05:56:00
2:33 AM,51.8,46.4,82,30.32,10.0,North,11.5,-,N/A,,Overcast,10,2012-11-18 07:33:00
2:44 AM,51.8,46.4,82,30.32,10.0,NNE,10.4,-,N/A,,Overcast,20,2012-11-18 07:44:00
2:56 AM,52.0,46.0,80,30.32,10.0,North,10.4,-,N/A,,Mostly Cloudy,10,2012-11-18 07:56:00
3:56 AM,52.0,46.0,80,30.30,10.0,North,15.0,-,N/A,,Mostly Cloudy,10,2012-11-18 08:56:00
4:36 AM,51.8,46.4,82,30.30,10.0,North,10.4,-,N/A,,Mostly Cloudy,10,2012-11-18 09:36:00
4:56 AM,52.0,46.9,83,30.30,10.0,North,11.5,-,N/A,,Mostly Cloudy,10,2012-11-18 09:56:00
5:26 AM,53.6,46.4,77,30.30,10.0,North,11.5,-,N/A,,Overcast,10,2012-11-18 10:26:00
5:53 AM,53.6,48.2,82,30.30,10.0,NNE,13.8,-,N/A,,Overcast,20,2012-11-18 10:53:00
5:56 AM,55.0,48.0,77,30.31,10.0,NNE,13.8,-,N/A,,Overcast,20,2012-11-18 10:56:00
6:56 AM,55.9,48.9,77,30.31,9.0,NNE,16.1,24.2,0.00,Rain,Light Rain,30,2012-11-18 11:56:00
7:56 AM,55.9,48.9,77,30.32,10.0,NNE,17.3,26.5,0.00,,Overcast,20,2012-11-18 12:56:00
8:56 AM,55.9,50.0,80,30.32,10.0,NNE,16.1,24.2,0.01,,Overcast,20,2012-11-18 13:56:00
9:56 AM,57.9,50.0,75,30.32,10.0,NNE,17.3,23.0,0.00,,Overcast,20,2012-11-18 14:56:00
10:56 AM,59.0,50.0,72,30.31,10.0,NNE,15.0,25.3,N/A,,Overcast,20,2012-11-18 15:56:00
11:56 AM,59.0,51.1,75,30.29,7.0,NNE,16.1,-,0.01,Rain,Light Rain,30,2012-11-18 16:56:00
12:00 PM,57.2,51.8,82,30.27,1.8,NNE,17.3,-,0.07,Rain,Heavy Rain,30,2012-11-18 17:00:00
12:17 PM,57.2,51.8,82,30.26,2.5,NNE,21.9,27.6,0.13,Rain,Light Rain,20,2012-11-18 17:17:00
12:25 PM,57.2,51.8,82,30.26,5.0,NNE,18.4,27.6,0.14,Rain,Light Rain,20,2012-11-18 17:25:00
12:56 PM,57.9,52.0,81,30.27,10.0,NNE,17.3,24.2,0.15,Rain,Light Rain,20,2012-11-18 17:56:00
1:34 PM,57.2,51.8,82,30.24,2.5,NNE,16.1,26.5,0.04,Rain,Light Rain,20,2012-11-18 18:34:00
1:44 PM,57.2,53.6,88,30.24,5.0,NNE,16.1,25.3,0.05,Rain,Light Rain,20,2012-11-18 18:44:00
1:56 PM,57.0,52.0,83,30.25,7.0,NNE,19.6,25.3,0.05,Rain,Light Rain,20,2012-11-18 18:56:00
2:29 PM,57.2,51.8,82,30.24,2.5,NNE,18.4,26.5,0.07,Rain,Rain,20,2012-11-18 19:29:00
3:03 PM,55.4,51.8,88,30.24,2.5,NNE,17.3,25.3,0.00,Rain,Light Rain,20,2012-11-18 20:03:00
3:29 PM,55.4,51.8,88,30.24,3.0,NNE,15.0,24.2,0.04,Rain,Light Rain,20,2012-11-18 20:29:00
3:43 PM,55.4,51.8,88,30.24,3.0,North,16.1,-,0.04,Rain,Light Rain,10,2012-11-18 20:43:00
3:47 PM,55.4,51.8,88,30.24,3.0,North,17.3,-,0.04,Rain,Light Rain,10,2012-11-18 20:47:00
4:04 PM,55.4,51.8,88,30.25,3.0,NNE,13.8,21.9,0.00,Rain,Light Rain,20,2012-11-18 21:04:00
4:18 PM,55.4,51.8,88,30.24,4.0,NNE,15.0,20.7,0.00,Rain,Light Rain,20,2012-11-18 21:18:00
4:56 PM,55.9,51.1,84,30.26,6.0,NNE,16.1,-,0.01,Rain,Light Rain,20,2012-11-18 21:56:00
5:29 PM,55.4,51.8,88,30.25,2.5,NNE,16.1,23.0,0.13,Rain,Heavy Rain,20,2012-11-18 22:29:00
5:38 PM,55.4,51.8,88,30.24,4.0,North,16.1,21.9,0.15,Rain,Light Rain,10,2012-11-18 22:38:00
5:56 PM,55.9,52.0,87,30.26,9.0,North,16.1,21.9,0.16,Rain,Light Rain,10,2012-11-18 22:56:00
6:56 PM,55.9,51.1,84,30.26,7.0,North,19.6,26.5,0.01,Rain,Light Rain,10,2012-11-18 23:56:00
7:56 PM,55.9,51.1,84,30.26,8.0,NNE,15.0,-,0.06,Rain,Light Rain,20,2012-11-19 00:56:00
8:56 PM,55.0,51.1,86,30.26,5.0,NNE,15.0,23.0,0.11,Rain,Rain,20,2012-11-19 01:56:00
9:56 PM,55.0,51.1,86,30.23,8.0,NNE,16.1,27.6,0.09,Rain,Light Rain,20,2012-11-19 02:56:00
10:05 PM,55.4,51.8,88,30.23,8.0,NNE,16.1,24.2,0.00,Rain,Light Rain,20,2012-11-19 03:05:00
11:56 PM,55.0,51.1,86,30.22,10.0,North,17.3,25.3,0.02,,Overcast,10,2012-11-19 04:56:00